Change the Weather History Date:

Sunday, October 14, 2012

  Actual Average Record
Temperature  
Mean Temperature 50 °F 46 °F  
Max Temperature 71 °F 64 °F 77 °F (1991)
Min Temperature 29 °F 28 °F 17 °F (1985)
Degree Days  
Heating Degree Days 15 19  
Month to date heating degree days 216 240  
Since 1 July heating degree days 635 866  
Cooling Degree Days 0 0  
Month to date cooling degree days 0 0  
Year to date cooling degree days 30 31  
Moisture  
Dew Point 31 °F    
Average Humidity 54    
Maximum Humidity 92    
Minimum Humidity 16    
Precipitation  
Precipitation 0.00 in - 2.84 in (1962)
Month to date precipitation 0.29  
Year to date precipitation 11.35  
Sea Level Pressure  
Sea Level Pressure 30.25 in    
Wind  
Wind Speed 2 mph (SSW)    
Max Wind Speed 14 mph    
Max Gust Speed 30 mph    
Visibility 10 miles    
Events      
T = Trace of Precipitation, MM = Missing Value Source: NWS Daily Summary

Daily Weather History Graph

Daily Weather History Graph

Search for Another Location

Airport or City:

Trip Planner

Search our weather history database for the weather conditions in past years. The results will help you decide how hot, cold, wet, or windy it might be!

Date:

Astronomy

Oct. 14, 2012 Rise Set
Actual Time 7:08 AM PDT 6:22 PM PDT
Civil Twilight 6:42 AM PDT 6:48 PM PDT
Nautical Twilight 6:11 AM PDT 7:19 PM PDT
Astronomical Twilight 5:40 AM PDT 7:50 PM PDT
Moon 6:14 AM PDT (10/14) 5:45 PM PDT (10/14)
Length of Visible Light 12h 06m
Length of Day
11h 13m
Waning Crescent, 1% of the Moon is Illuminated
Oct 14
Waning Crescent
Oct 15
New
Oct 21
First Quarter
Oct 29
Full
Nov 6
Last Quarter

Hourly Weather History & Observations

Time (PDT) Temp. Windchill Dew Point Humidity Pressure Visibility Wind Dir Wind Speed Gust Speed Precip Events Conditions
12:53 AM 34.0 °F - 28.9 °F 82% 30.27 in 10.0 mi Calm Calm - N/A   Clear
1:53 AM 32.0 °F - 28.9 °F 88% 30.30 in 10.0 mi Calm Calm - N/A   Clear
2:53 AM 30.9 °F - 28.0 °F 89% 30.30 in 10.0 mi Calm Calm - N/A   Clear
3:53 AM 30.9 °F - 27.0 °F 85% 30.28 in 10.0 mi Calm Calm - N/A   Clear
4:53 AM 30.0 °F 26.5 °F 27.0 °F 88% 30.30 in 10.0 mi SSW 3.5 mph - N/A   Clear
5:53 AM 30.0 °F - 27.0 °F 88% 30.32 in 10.0 mi Calm Calm - N/A   Clear
6:53 AM 28.9 °F 25.2 °F 26.1 °F 89% 30.35 in 10.0 mi SSW 3.5 mph - N/A   Clear
7:53 AM 30.0 °F - 27.0 °F 88% 30.37 in 10.0 mi Calm Calm - N/A   Clear
8:53 AM 39.0 °F - 32.0 °F 76% 30.34 in 10.0 mi North - - N/A   Clear
9:53 AM 52.0 °F - 35.1 °F 53% 30.30 in 10.0 mi Calm Calm - N/A   Clear
10:53 AM 61.0 °F - 28.9 °F 30% 30.27 in 10.0 mi NE 3.5 mph - N/A   Clear
11:53 AM 63.0 °F - 35.1 °F 35% 30.27 in 10.0 mi Variable 4.6 mph - N/A   Clear
1:53 PM 71.1 °F - 23.0 °F 16% 30.20 in 10.0 mi Variable 6.9 mph - N/A   Clear
2:53 PM 70.0 °F - 27.0 °F 20% 30.19 in 10.0 mi SSW 8.1 mph 18.4 mph N/A   Clear
3:53 PM 69.1 °F - 30.0 °F 23% 30.19 in 10.0 mi Variable 3.5 mph - N/A   Clear
4:53 PM 66.9 °F - 30.9 °F 26% 30.19 in 10.0 mi SSW 8.1 mph - N/A   Clear
5:53 PM 60.1 °F - 36.0 °F 41% 30.21 in 10.0 mi Calm Calm - N/A   Clear
6:53 PM 54.0 °F - 37.9 °F 55% 30.23 in 10.0 mi SSW 4.6 mph - N/A   Clear
7:53 PM 52.0 °F - 39.9 °F 63% 30.24 in 10.0 mi South 5.8 mph - N/A   Clear
8:53 PM 48.0 °F - 37.9 °F 68% 30.22 in 10.0 mi South 9.2 mph - N/A   Clear
9:53 PM 46.0 °F - 36.0 °F 68% 30.19 in 10.0 mi Calm Calm - N/A   Clear
10:53 PM 46.0 °F - 36.0 °F 68% 30.16 in 10.0 mi Calm Calm - N/A   Clear
11:53 PM 45.0 °F - 35.1 °F 68% 30.17 in 10.0 mi Calm Calm - N/A   Clear